Weather Roundup
Issued by NWS Chicago, IL

Home | Current Version | Previous Version | Text Only | Print | Product List | Glossary Off
Versions: 1 2 3 4 5 6 7 8 9 10 11 12 13 14 15 16 17 18 19 20 21 22 23 24 25 26 27 28 29 30 31 32 33 34 35 36 37 38 39 40 41 42 43 44 45 46 47 48 49 50

000
NZUS59 KLOT 281910
HRRLOT

CHICAGO AREA WEATHER ROUNDUP
NATIONAL WEATHER SERVICE CHICAGO/ROMEOVILLE IL
200 PM CDT THU AUG 28 2014

NOTE: "FAIR" INDICATES FEW OR NO CLOUDS BELOW 12,000 FEET WITH NO
SIGNIFICANT WEATHER AND/OR OBSTRUCTIONS TO VISIBILITY.

* THESE STATIONS ARE NOT UNDER NWS QUALITY CONTROL. THEY ALSO MAY NOT
  REPORT WEATHER SUCH AS PRECIPITATION OR FOG.

ILZ005-006-012>014-019>023-282000-
NORTHEAST ILLINOIS

CITY           SKY/WX    TMP DP  RH WIND       PRES   REMARKS
OHARE          PTSUNNY   77  52  41 NE7       30.09F
MIDWAY         PTSUNNY   77  59  53 E6        30.09F
AURORA         MOSUNNY   80  58  46 E9        30.08F HX  80
LANSING*       MOSUNNY   77  62  59 E6        30.09F
JOLIET*        MOSUNNY   78  58  49 E5        30.09F
WAUKEGAN       SUNNY     71  53  52 E10       30.12F
DUPAGE AIRPORT MOSUNNY   79  55  43 SE7       30.09F
WHEELING       PTSUNNY   74  54  49 E8        30.12F
KANKAKEE*      MOSUNNY   79  65  63 E7        30.08F HX  81
MORRIS*        MOSUNNY   80  65  59 E8        30.06F HX  81
LEWIS AIRPORT* MOSUNNY   78  58  49 E5        30.08F HX  80
NORTHERLY IS     N/A     71  58  63 N9          N/A
$$

WIZ051-052-058>065-066-070>072-282000-
SOUTHEAST WISCONSIN

CITY           SKY/WX    TMP DP  RH WIND       PRES   REMARKS
MILWAUKEE      PTSUNNY   70  54  56 E10       30.14F
KENOSHA*       SUNNY     72  53  51 E8G21     30.13F
RACINE*        SUNNY     71  56  58 E9        30.15F
BURLINGTON     MOSUNNY   71  54  54 E8        30.12S
WAUKESHA       MOSUNNY   72  54  53 SE9       30.14F
WEST BEND      MOSUNNY   70  52  52 E10       30.14F
$$

INZ001>003-010>013-019-020-282000-
NORTHWEST INDIANA

CITY           SKY/WX    TMP DP  RH WIND       PRES   REMARKS
GARY*          MOSUNNY   75  61  60 NE9       30.10F
MICHIGAN CITY* NOT AVBL
RENSSELAER*    NOT AVBL
VALPARAISO     MOSUNNY   78  62  57 VRB3      30.10F HX  80
$$

LMZ740>746-282000-
SOUTHERN LAKE MICHIGAN

STATION/POSITION TIME  SKY/WX   TEMP WIND        PRES    VSBY
                                AIR  DIR/SP/G
                 (UTC)          (F)  (DEG/KT/KT) (MB)    (MI)
HARRISON CRIB    1900            68   50/ 10/ 12   N/A
BURNHAM HARBOR   1900            71   40/ 10       N/A
CALUMET HARBOR   1900            70   10/ 10/ 13 1018.1F
BURNS HARBOR     NOT AVBL
MICHIGAN CITY    1900            69  360/ 10/ 12   N/A
$$

ABBREVIATIONS USED IN REMARKS
   TC - TEMPERATURE IN CELSIUS
  WCI - WIND CHILL INDEX
   HX - HEAT INDEX
  VSB - VISIBILITY
$$


USA.gov is the U.S. government's official web portal to all federal, state and local government web resources and services.